Time,TemperatureF,DewpointF,PressureIn,WindDirection,WindDirectionDegrees,WindSpeedMPH,WindSpeedGustMPH,Humidity,HourlyPrecipIn,Conditions,Clouds,dailyrainin,SoftwareType,DateUTC
2013-04-02 00:00:00,41.4,18.3,29.99,West,269,2.0,3.0,39,0.00,,---,0.00,VWS V14.01,2013-04-02 04:00:00,
2013-04-02 00:05:00,41.4,18.9,30.00,West,271,0.0,1.0,40,0.00,,---,0.00,VWS V14.01,2013-04-02 04:05:00,
2013-04-02 00:10:00,41.3,18.8,30.00,West,271,0.0,0.0,40,0.00,,---,0.00,VWS V14.01,2013-04-02 04:10:00,
2013-04-02 00:15:00,41.2,19.3,30.00,WNW,282,5.0,12.0,41,0.00,,---,0.00,VWS V14.01,2013-04-02 04:15:00,
2013-04-02 00:20:00,41.0,19.7,30.00,North,350,2.0,3.0,42,0.00,,---,0.00,VWS V14.01,2013-04-02 04:20:00,
2013-04-02 00:25:00,40.9,19.6,30.00,North,350,2.0,2.0,42,0.00,,---,0.00,VWS V14.01,2013-04-02 04:25:00,
2013-04-02 00:30:00,40.7,20.5,30.00,NW,307,5.0,5.0,44,0.00,,---,0.00,VWS V14.01,2013-04-02 04:30:00,
2013-04-02 00:35:00,40.6,18.8,30.01,WNW,296,7.0,7.0,41,0.00,,---,0.00,VWS V14.01,2013-04-02 04:35:00,
2013-04-02 00:40:00,40.6,18.8,30.01,NW,309,4.0,5.0,41,0.00,,---,0.00,VWS V14.01,2013-04-02 04:40:00,
2013-04-02 00:45:00,40.6,18.2,30.01,NNE,13,2.0,4.0,40,0.00,,---,0.00,VWS V14.01,2013-04-02 04:45:00,
2013-04-02 00:50:00,40.6,18.2,30.01,North,11,2.0,3.0,40,0.00,,---,0.00,VWS V14.01,2013-04-02 04:50:00,
2013-04-02 00:55:00,40.4,18.0,30.01,NW,321,3.0,4.0,40,0.00,,---,0.00,VWS V14.01,2013-04-02 04:55:00,
2013-04-02 01:00:00,40.3,18.5,30.01,NW,321,2.0,2.0,41,0.00,,---,0.00,VWS V14.01,2013-04-02 05:00:00,
2013-04-02 01:05:00,40.2,19.0,30.01,NW,321,0.0,1.0,42,0.00,,---,0.00,VWS V14.01,2013-04-02 05:05:00,
2013-04-02 01:10:00,39.6,18.4,30.01,NNW,332,5.0,5.0,42,0.00,,---,0.00,VWS V14.01,2013-04-02 05:10:00,
2013-04-02 01:15:00,38.6,19.6,30.01,NNW,344,0.0,3.0,46,0.00,,---,0.00,VWS V14.01,2013-04-02 05:15:00,
2013-04-02 01:20:00,38.0,19.6,30.02,NW,324,4.0,11.0,47,0.00,,---,0.00,VWS V14.01,2013-04-02 05:20:00,
2013-04-02 01:25:00,38.0,19.1,30.02,NW,312,3.0,5.0,46,0.00,,---,0.00,VWS V14.01,2013-04-02 05:25:00,
2013-04-02 01:30:00,37.7,17.2,30.02,WSW,240,3.0,4.0,43,0.00,,---,0.00,VWS V14.01,2013-04-02 05:30:00,
2013-04-02 01:35:00,37.9,18.5,30.01,WNW,288,5.0,6.0,45,0.00,,---,0.00,VWS V14.01,2013-04-02 05:35:00,
2013-04-02 01:40:00,37.7,17.8,30.01,SW,226,5.0,7.0,44,0.00,,---,0.00,VWS V14.01,2013-04-02 05:40:00,
2013-04-02 01:45:00,37.9,16.9,30.01,WNW,282,4.0,4.0,42,0.00,,---,0.00,VWS V14.01,2013-04-02 05:45:00,
2013-04-02 01:50:00,37.7,16.1,30.02,WSW,254,1.0,2.0,41,0.00,,---,0.00,VWS V14.01,2013-04-02 05:50:00,
2013-04-02 01:55:00,37.7,19.8,30.02,NW,307,2.0,5.0,48,0.00,,---,0.00,VWS V14.01,2013-04-02 05:55:00,
2013-04-02 02:00:00,37.3,18.9,30.02,NNW,327,5.0,6.0,47,0.00,,---,0.00,VWS V14.01,2013-04-02 06:00:00,
2013-04-02 02:05:00,36.7,17.4,30.02,North,355,3.0,4.0,45,0.00,,---,0.00,VWS V14.01,2013-04-02 06:05:00,
2013-04-02 02:10:00,36.6,15.1,30.02,North,5,3.0,3.0,41,0.00,,---,0.00,VWS V14.01,2013-04-02 06:10:00,
2013-04-02 02:15:00,37.1,18.2,30.02,NW,317,0.0,1.0,46,0.00,,---,0.00,VWS V14.01,2013-04-02 06:15:00,
2013-04-02 02:20:00,37.0,17.1,30.01,NE,46,5.0,5.0,44,0.00,,---,0.00,VWS V14.01,2013-04-02 06:20:00,
2013-04-02 02:25:00,36.6,19.3,30.01,NE,40,1.0,3.0,49,0.00,,---,0.00,VWS V14.01,2013-04-02 06:25:00,
2013-04-02 02:30:00,36.0,17.2,30.01,NE,40,4.0,4.0,46,0.00,,---,0.00,VWS V14.01,2013-04-02 06:30:00,
2013-04-02 02:35:00,35.6,16.4,30.01,NW,321,3.0,5.0,45,0.00,,---,0.00,VWS V14.01,2013-04-02 06:35:00,
2013-04-02 02:40:00,35.7,17.5,30.01,NNW,338,3.0,4.0,47,0.00,,---,0.00,VWS V14.01,2013-04-02 06:40:00,
2013-04-02 02:44:00,36.1,15.2,30.01,WNW,294,5.0,6.0,42,0.00,,---,0.00,VWS V14.01,2013-04-02 06:44:00,
2013-04-02 02:45:00,37.7,17.2,30.02,WSW,254,2.0,9.0,43,0.00,,---,0.00,VWS V14.01,2013-04-02 06:45:00,
2013-04-02 02:49:00,36.0,17.2,30.01,WNW,295,2.0,6.0,46,0.00,,---,0.00,VWS V14.01,2013-04-02 06:49:00,
2013-04-02 02:50:00,37.7,18.3,30.02,NW,307,5.0,5.0,45,0.00,,---,0.00,VWS V14.01,2013-04-02 06:50:00,
2013-04-02 02:54:00,36.0,16.2,30.01,WNW,296,5.0,7.0,44,0.00,,---,0.00,VWS V14.01,2013-04-02 06:54:00,
2013-04-02 02:55:00,37.3,17.9,30.02,NNW,331,6.0,12.0,45,0.00,,---,0.00,VWS V14.01,2013-04-02 06:55:00,
2013-04-02 02:59:00,36.1,15.2,30.01,NW,325,3.0,3.0,42,0.00,,---,0.00,VWS V14.01,2013-04-02 06:59:00,
2013-04-02 03:00:00,36.7,17.4,30.02,North,355,4.0,6.0,45,0.00,,---,0.00,VWS V14.01,2013-04-02 07:00:00,
2013-04-02 03:04:00,36.3,17.0,30.01,NW,325,2.0,2.0,45,0.00,,---,0.00,VWS V14.01,2013-04-02 07:04:00,
2013-04-02 03:05:00,36.6,16.2,30.02,North,355,3.0,4.0,43,0.00,,---,0.00,VWS V14.01,2013-04-02 07:05:00,
2013-04-02 03:09:00,36.3,15.4,30.01,WNW,295,2.0,4.0,42,0.00,,---,0.00,VWS V14.01,2013-04-02 07:09:00,
2013-04-02 03:10:00,37.1,18.2,30.02,NW,317,1.0,8.0,46,0.00,,---,0.00,VWS V14.01,2013-04-02 07:10:00,
2013-04-02 03:14:00,36.4,16.6,30.01,NW,315,4.0,4.0,44,0.00,,---,0.00,VWS V14.01,2013-04-02 07:14:00,
2013-04-02 03:15:00,37.0,17.1,30.01,NE,46,4.0,4.0,44,0.00,,---,0.00,VWS V14.01,2013-04-02 07:15:00,
2013-04-02 03:19:00,36.6,17.3,30.02,NW,305,2.0,2.0,45,0.00,,---,0.00,VWS V14.01,2013-04-02 07:19:00,
2013-04-02 03:20:00,36.6,19.3,30.01,NE,40,3.0,5.0,49,0.00,,---,0.00,VWS V14.01,2013-04-02 07:20:00,
2013-04-02 03:24:00,36.3,17.0,30.02,NW,304,0.0,0.0,45,0.00,,---,0.00,VWS V14.01,2013-04-02 07:24:00,
2013-04-02 03:25:00,36.0,17.7,30.01,NE,40,3.0,3.0,47,0.00,,---,0.00,VWS V14.01,2013-04-02 07:25:00,
2013-04-02 03:29:00,36.0,18.2,30.02,NW,305,1.0,3.0,48,0.00,,---,0.00,VWS V14.01,2013-04-02 07:29:00,
2013-04-02 03:30:00,35.6,17.4,30.01,NW,321,4.0,9.0,47,0.00,,---,0.00,VWS V14.01,2013-04-02 07:30:00,
2013-04-02 03:34:00,35.4,16.2,30.01,NNE,16,5.0,6.0,45,0.00,,---,0.00,VWS V14.01,2013-04-02 07:34:00,
2013-04-02 03:35:00,35.9,18.1,30.01,NNW,338,2.0,6.0,48,0.00,,---,0.00,VWS V14.01,2013-04-02 07:35:00,
2013-04-02 03:39:00,35.4,15.7,30.01,NNW,327,3.0,3.0,44,0.00,,---,0.00,VWS V14.01,2013-04-02 07:39:00,
2013-04-02 03:40:00,36.0,15.1,30.01,WNW,296,5.0,7.0,42,0.00,,---,0.00,VWS V14.01,2013-04-02 07:40:00,
2013-04-02 03:44:00,35.0,17.8,30.01,NNW,327,3.0,3.0,49,0.00,,---,0.00,VWS V14.01,2013-04-02 07:44:00,
2013-04-02 03:45:00,36.0,17.2,30.01,WNW,298,5.0,6.0,46,0.00,,---,0.00,VWS V14.01,2013-04-02 07:45:00,
2013-04-02 03:49:00,34.6,17.4,30.02,NNW,327,2.0,3.0,49,0.00,,---,0.00,VWS V14.01,2013-04-02 07:49:00,
2013-04-02 03:50:00,36.0,16.2,30.01,WSW,257,4.0,8.0,44,0.00,,---,0.00,VWS V14.01,2013-04-02 07:50:00,
2013-04-02 03:54:00,34.3,16.2,30.02,NNW,327,2.0,3.0,47,0.00,,---,0.00,VWS V14.01,2013-04-02 07:54:00,
2013-04-02 03:55:00,36.1,15.8,30.01,NW,325,2.0,7.0,43,0.00,,---,0.00,VWS V14.01,2013-04-02 07:55:00,
2013-04-02 03:59:00,34.1,17.4,30.02,NNW,327,3.0,4.0,50,0.00,,---,0.00,VWS V14.01,2013-04-02 07:59:00,
2013-04-02 04:00:00,36.3,17.5,30.01,NW,325,1.0,4.0,46,0.00,,---,0.00,VWS V14.01,2013-04-02 08:00:00,
2013-04-02 04:04:00,33.8,17.1,30.02,NNW,327,1.0,1.0,50,0.00,,---,0.00,VWS V14.01,2013-04-02 08:04:00,
2013-04-02 04:05:00,36.3,16.0,30.01,WNW,294,3.0,10.0,43,0.00,,---,0.00,VWS V14.01,2013-04-02 08:05:00,
2013-04-02 04:09:00,33.7,17.0,30.02,NNW,330,2.0,3.0,50,0.00,,---,0.00,VWS V14.01,2013-04-02 08:09:00,
2013-04-02 04:10:00,36.4,16.6,30.01,NW,315,2.0,14.0,44,0.00,,---,0.00,VWS V14.01,2013-04-02 08:10:00,
2013-04-02 04:14:00,33.7,18.4,30.02,NW,316,3.0,3.0,53,0.00,,---,0.00,VWS V14.01,2013-04-02 08:14:00,
2013-04-02 04:15:00,36.6,17.3,30.02,NW,305,2.0,6.0,45,0.00,,---,0.00,VWS V14.01,2013-04-02 08:15:00,
2013-04-02 04:19:00,33.4,17.2,30.02,NW,316,2.0,2.0,51,0.00,,---,0.00,VWS V14.01,2013-04-02 08:19:00,
2013-04-02 04:20:00,36.3,17.0,30.02,NW,304,0.0,4.0,45,0.00,,---,0.00,VWS V14.01,2013-04-02 08:20:00,
2013-04-02 04:24:00,33.4,15.8,30.02,NW,321,3.0,3.0,48,0.00,,---,0.00,VWS V14.01,2013-04-02 08:24:00,
2013-04-02 04:25:00,36.0,18.2,30.02,NW,304,2.0,5.0,48,0.00,,---,0.00,VWS V14.01,2013-04-02 08:25:00,
2013-04-02 04:29:00,33.5,16.9,30.02,WNW,286,2.0,2.0,50,0.00,,---,0.00,VWS V14.01,2013-04-02 08:29:00,
2013-04-02 04:30:00,35.4,16.7,30.01,NNE,16,5.0,5.0,46,0.00,,---,0.00,VWS V14.01,2013-04-02 08:30:00,
2013-04-02 04:34:00,33.4,16.8,30.02,North,350,0.0,0.0,50,0.00,,---,0.00,VWS V14.01,2013-04-02 08:34:00,
2013-04-02 04:35:00,35.4,15.7,30.01,NNW,327,3.0,6.0,44,0.00,,---,0.00,VWS V14.01,2013-04-02 08:35:00,
2013-04-02 04:39:00,33.5,16.9,30.02,North,350,1.0,2.0,50,0.00,,---,0.00,VWS V14.01,2013-04-02 08:39:00,
2013-04-02 04:40:00,35.0,17.8,30.01,NNW,327,1.0,3.0,49,0.00,,---,0.00,VWS V14.01,2013-04-02 08:40:00,
2013-04-02 04:44:00,33.5,16.9,30.02,SSW,212,5.0,7.0,50,0.00,,---,0.00,VWS V14.01,2013-04-02 08:44:00,
2013-04-02 04:45:00,34.6,17.4,30.02,NNW,327,3.0,5.0,49,0.00,,---,0.00,VWS V14.01,2013-04-02 08:45:00,
2013-04-02 04:49:00,33.4,18.1,30.03,NW,305,2.0,2.0,53,0.00,,---,0.00,VWS V14.01,2013-04-02 08:49:00,
2013-04-02 04:50:00,34.3,16.2,30.02,NNW,327,2.0,3.0,47,0.00,,---,0.00,VWS V14.01,2013-04-02 08:50:00,
2013-04-02 04:54:00,33.1,18.3,30.03,NNW,338,2.0,4.0,54,0.00,,---,0.00,VWS V14.01,2013-04-02 08:54:00,
2013-04-02 04:55:00,34.3,17.6,30.02,NNW,327,4.0,5.0,50,0.00,,---,0.00,VWS V14.01,2013-04-02 08:55:00,
2013-04-02 04:59:00,32.8,16.7,30.03,NW,312,14.0,14.0,51,0.00,,---,0.00,VWS V14.01,2013-04-02 08:59:00,
2013-04-02 05:00:00,33.8,17.1,30.02,NNW,327,1.0,5.0,50,0.00,,---,0.00,VWS V14.01,2013-04-02 09:00:00,
2013-04-02 05:04:00,33.1,15.1,30.03,NW,313,6.0,7.0,47,0.00,,---,0.00,VWS V14.01,2013-04-02 09:04:00,
2013-04-02 05:05:00,33.7,17.5,30.02,NNW,330,3.0,6.0,51,0.00,,---,0.00,VWS V14.01,2013-04-02 09:05:00,
2013-04-02 05:09:00,33.8,15.7,30.03,West,279,6.0,7.0,47,0.00,,---,0.00,VWS V14.01,2013-04-02 09:09:00,
2013-04-02 05:10:00,33.7,18.4,30.02,NW,316,3.0,6.0,53,0.00,,---,0.00,VWS V14.01,2013-04-02 09:10:00,
2013-04-02 05:14:00,34.6,15.5,30.03,West,267,0.0,1.0,45,0.00,,---,0.00,VWS V14.01,2013-04-02 09:14:00,
2013-04-02 05:15:00,33.4,17.7,30.02,NW,316,2.0,4.0,52,0.00,,---,0.00,VWS V14.01,2013-04-02 09:15:00,
2013-04-02 05:19:00,34.9,15.7,30.04,West,267,0.0,0.0,45,0.00,,---,0.00,VWS V14.01,2013-04-02 09:19:00,
2013-04-02 05:20:00,33.4,15.8,30.02,NW,321,2.0,5.0,48,0.00,,---,0.00,VWS V14.01,2013-04-02 09:20:00,
2013-04-02 05:24:00,35.0,15.3,30.04,West,267,2.0,3.0,44,0.00,,---,0.00,VWS V14.01,2013-04-02 09:24:00,
2013-04-02 05:25:00,33.5,16.9,30.02,WNW,286,1.0,4.0,50,0.00,,---,0.00,VWS V14.01,2013-04-02 09:25:00,
2013-04-02 05:29:00,35.3,16.1,30.04,WSW,245,3.0,5.0,45,0.00,,---,0.00,VWS V14.01,2013-04-02 09:29:00,
2013-04-02 05:30:00,33.4,16.8,30.02,North,350,0.0,7.0,50,0.00,,---,0.00,VWS V14.01,2013-04-02 09:30:00,
2013-04-02 05:34:00,35.0,16.3,30.05,West,276,2.0,3.0,46,0.00,,---,0.00,VWS V14.01,2013-04-02 09:34:00,
2013-04-02 05:35:00,33.5,16.4,30.02,North,350,2.0,5.0,49,0.00,,---,0.00,VWS V14.01,2013-04-02 09:35:00,
2013-04-02 05:39:00,34.7,17.5,30.05,West,277,1.0,1.0,49,0.00,,---,0.00,VWS V14.01,2013-04-02 09:39:00,
2013-04-02 05:40:00,33.5,16.9,30.02,SW,221,5.0,5.0,50,0.00,,---,0.00,VWS V14.01,2013-04-02 09:40:00,
2013-04-02 05:44:00,34.0,15.4,30.05,West,277,2.0,2.0,46,0.00,,---,0.00,VWS V14.01,2013-04-02 09:44:00,
2013-04-02 05:45:00,33.4,18.1,30.03,NW,305,1.0,7.0,53,0.00,,---,0.00,VWS V14.01,2013-04-02 09:45:00,
2013-04-02 05:49:00,33.7,17.0,30.05,West,277,1.0,2.0,50,0.00,,---,0.00,VWS V14.01,2013-04-02 09:49:00,
2013-04-02 05:50:00,33.1,18.3,30.03,NNW,339,4.0,6.0,54,0.00,,---,0.00,VWS V14.01,2013-04-02 09:50:00,
2013-04-02 05:54:00,33.1,17.0,30.05,West,277,1.0,3.0,51,0.00,,---,0.00,VWS V14.01,2013-04-02 09:54:00,
2013-04-02 05:55:00,32.8,16.7,30.03,WNW,298,9.0,10.0,51,0.00,,---,0.00,VWS V14.01,2013-04-02 09:55:00,
2013-04-02 05:59:00,32.5,17.7,30.05,West,277,1.0,1.0,54,0.00,,---,0.00,VWS V14.01,2013-04-02 09:59:00,
2013-04-02 06:00:00,33.1,15.1,30.03,NW,314,7.0,14.0,47,0.00,,---,0.00,VWS V14.01,2013-04-02 10:00:00,
2013-04-02 06:04:00,31.9,17.6,30.06,West,277,1.0,1.0,55,0.00,,---,0.00,VWS V14.01,2013-04-02 10:04:00,
2013-04-02 06:05:00,33.8,15.7,30.03,WNW,292,5.0,8.0,47,0.00,,---,0.00,VWS V14.01,2013-04-02 10:05:00,
2013-04-02 06:09:00,31.3,18.2,30.06,West,279,3.0,3.0,58,0.00,,---,0.00,VWS V14.01,2013-04-02 10:09:00,
2013-04-02 06:10:00,34.6,16.0,30.03,West,267,1.0,7.0,46,0.00,,---,0.00,VWS V14.01,2013-04-02 10:10:00,
2013-04-02 06:14:00,30.7,16.5,30.06,WNW,285,3.0,3.0,55,0.00,,---,0.00,VWS V14.01,2013-04-02 10:14:00,
2013-04-02 06:15:00,34.9,15.7,30.04,West,267,0.0,1.0,45,0.00,,---,0.00,VWS V14.01,2013-04-02 10:15:00,
2013-04-02 06:19:00,30.4,16.6,30.07,WNW,288,3.0,3.0,56,0.00,,---,0.00,VWS V14.01,2013-04-02 10:19:00,
2013-04-02 06:20:00,35.0,15.3,30.04,West,267,2.0,2.0,44,0.00,,---,0.00,VWS V14.01,2013-04-02 10:20:00,
2013-04-02 06:24:00,30.1,16.7,30.07,NW,319,2.0,3.0,57,0.00,,---,0.00,VWS V14.01,2013-04-02 10:24:00,
2013-04-02 06:25:00,35.3,16.1,30.04,WSW,245,5.0,11.0,45,0.00,,---,0.00,VWS V14.01,2013-04-02 10:25:00,
2013-04-02 06:29:00,30.0,16.2,30.07,NW,319,0.0,0.0,56,0.00,,---,0.00,VWS V14.01,2013-04-02 10:29:00,
2013-04-02 06:30:00,35.0,16.3,30.05,West,276,3.0,5.0,46,0.00,,---,0.00,VWS V14.01,2013-04-02 10:30:00,
2013-04-02 06:34:00,30.1,15.9,30.08,NW,319,1.0,1.0,55,0.00,,---,0.00,VWS V14.01,2013-04-02 10:34:00,
2013-04-02 06:35:00,34.7,17.5,30.05,West,277,1.0,4.0,49,0.00,,---,0.00,VWS V14.01,2013-04-02 10:35:00,
2013-04-02 06:39:00,30.3,15.7,30.08,WNW,303,5.0,5.0,54,0.00,,---,0.00,VWS V14.01,2013-04-02 10:39:00,
2013-04-02 06:40:00,34.1,15.5,30.05,West,277,2.0,3.0,46,0.00,,---,0.00,VWS V14.01,2013-04-02 10:40:00,
2013-04-02 06:44:00,30.3,16.5,30.08,NW,308,2.0,3.0,56,0.00,,---,0.00,VWS V14.01,2013-04-02 10:44:00,
2013-04-02 06:45:00,33.7,17.0,30.05,West,277,2.0,2.0,50,0.00,,---,0.00,VWS V14.01,2013-04-02 10:45:00,
2013-04-02 06:49:00,30.6,16.4,30.08,NW,309,2.0,2.0,55,0.00,,---,0.00,VWS V14.01,2013-04-02 10:49:00,
2013-04-02 06:50:00,33.1,16.5,30.05,West,277,2.0,3.0,50,0.00,,---,0.00,VWS V14.01,2013-04-02 10:50:00,
2013-04-02 06:54:00,30.4,16.2,30.08,WNW,285,4.0,5.0,55,0.00,,---,0.00,VWS V14.01,2013-04-02 10:54:00,
2013-04-02 06:55:00,32.5,17.7,30.05,West,277,1.0,3.0,54,0.00,,---,0.00,VWS V14.01,2013-04-02 10:55:00,
2013-04-02 06:59:00,30.4,16.2,30.08,WNW,294,4.0,4.0,55,0.00,,---,0.00,VWS V14.01,2013-04-02 10:59:00,
2013-04-02 07:00:00,31.9,17.6,30.06,West,277,1.0,3.0,55,0.00,,---,0.00,VWS V14.01,2013-04-02 11:00:00,
2013-04-02 07:04:00,30.4,16.2,30.09,West,276,4.0,4.0,55,0.00,,---,0.00,VWS V14.01,2013-04-02 11:04:00,
2013-04-02 07:05:00,31.3,18.2,30.06,West,279,1.0,4.0,58,0.00,,---,0.00,VWS V14.01,2013-04-02 11:05:00,
2013-04-02 07:09:00,30.3,16.5,30.09,West,277,3.0,3.0,56,0.00,,---,0.00,VWS V14.01,2013-04-02 11:09:00,
2013-04-02 07:10:00,30.7,16.5,30.06,WNW,285,3.0,4.0,55,0.00,,---,0.00,VWS V14.01,2013-04-02 11:10:00,
2013-04-02 07:14:00,30.1,16.3,30.09,West,277,1.0,2.0,56,0.00,,---,0.00,VWS V14.01,2013-04-02 11:14:00,
2013-04-02 07:15:00,30.4,16.6,30.07,WNW,288,1.0,4.0,56,0.00,,---,0.00,VWS V14.01,2013-04-02 11:15:00,
2013-04-02 07:19:00,29.8,16.8,30.11,West,278,4.0,4.0,58,0.00,,---,0.00,VWS V14.01,2013-04-02 11:19:00,
2013-04-02 07:20:00,30.1,17.5,30.07,NW,319,3.0,6.0,59,0.00,,---,0.00,VWS V14.01,2013-04-02 11:20:00,
2013-04-02 07:24:00,29.8,16.4,30.11,West,279,2.0,2.0,57,0.00,,---,0.00,VWS V14.01,2013-04-02 11:24:00,
2013-04-02 07:25:00,30.0,16.2,30.07,NW,319,0.0,3.0,56,0.00,,---,0.00,VWS V14.01,2013-04-02 11:25:00,
2013-04-02 07:29:00,30.0,16.2,30.11,West,281,1.0,3.0,56,0.00,,---,0.00,VWS V14.01,2013-04-02 11:29:00,
2013-04-02 07:30:00,30.1,15.9,30.08,NW,319,0.0,4.0,55,0.00,,---,0.00,VWS V14.01,2013-04-02 11:30:00,
2013-04-02 07:34:00,30.3,18.1,30.12,West,281,0.0,2.0,60,0.00,,---,0.00,VWS V14.01,2013-04-02 11:34:00,
2013-04-02 07:35:00,30.3,15.7,30.08,WNW,302,4.0,4.0,54,0.00,,---,0.00,VWS V14.01,2013-04-02 11:35:00,
2013-04-02 07:39:00,30.6,17.6,30.12,West,281,2.0,2.0,58,0.00,,---,0.00,VWS V14.01,2013-04-02 11:39:00,
2013-04-02 07:40:00,30.3,16.5,30.08,NW,308,3.0,6.0,56,0.00,,---,0.00,VWS V14.01,2013-04-02 11:40:00,
2013-04-02 07:44:00,31.2,17.3,30.12,NNW,345,0.0,5.0,56,0.00,,---,0.00,VWS V14.01,2013-04-02 11:44:00,
2013-04-02 07:45:00,30.4,16.2,30.08,NW,309,2.0,4.0,55,0.00,,---,0.00,VWS V14.01,2013-04-02 11:45:00,
2013-04-02 07:49:00,31.6,16.9,30.12,North,360,2.0,2.0,54,0.00,,---,0.00,VWS V14.01,2013-04-02 11:49:00,
2013-04-02 07:50:00,30.4,16.2,30.08,WNW,282,5.0,6.0,55,0.00,,---,0.00,VWS V14.01,2013-04-02 11:50:00,
2013-04-02 07:54:00,32.0,17.7,30.12,WSW,246,3.0,5.0,55,0.00,,---,0.00,VWS V14.01,2013-04-02 11:54:00,
2013-04-02 07:55:00,30.4,16.2,30.08,WNW,294,3.0,5.0,55,0.00,,---,0.00,VWS V14.01,2013-04-02 11:55:00,
2013-04-02 07:59:00,32.8,15.8,30.12,NW,312,3.0,12.0,49,0.00,,---,0.00,VWS V14.01,2013-04-02 11:59:00,
2013-04-02 08:00:00,30.4,16.2,30.09,WNW,294,3.0,4.0,55,0.00,,---,0.00,VWS V14.01,2013-04-02 12:00:00,
2013-04-02 08:04:00,33.7,16.1,30.13,WNW,284,3.0,8.0,48,0.00,,---,0.00,VWS V14.01,2013-04-02 12:04:00,
2013-04-02 08:05:00,30.3,16.5,30.09,West,277,2.0,4.0,56,0.00,,---,0.00,VWS V14.01,2013-04-02 12:05:00,
2013-04-02 08:09:00,34.4,17.7,30.13,SW,225,6.0,7.0,50,0.00,,---,0.00,VWS V14.01,2013-04-02 12:09:00,
2013-04-02 08:10:00,30.1,16.3,30.09,West,277,2.0,4.0,56,0.00,,---,0.00,VWS V14.01,2013-04-02 12:10:00,
2013-04-02 08:14:00,35.1,16.4,30.13,West,269,3.0,7.0,46,0.00,,---,0.00,VWS V14.01,2013-04-02 12:14:00,
2013-04-02 08:15:00,29.8,16.8,30.11,West,278,4.0,4.0,58,0.00,,---,0.00,VWS V14.01,2013-04-02 12:15:00,
2013-04-02 08:19:00,35.7,16.5,30.13,West,264,12.0,12.0,45,0.00,,---,0.00,VWS V14.01,2013-04-02 12:19:00,
2013-04-02 08:20:00,29.8,16.4,30.11,West,279,2.0,4.0,57,0.00,,---,0.00,VWS V14.01,2013-04-02 12:20:00,
2013-04-02 08:24:00,36.3,15.4,30.13,West,261,5.0,12.0,42,0.00,,---,0.00,VWS V14.01,2013-04-02 12:24:00,
2013-04-02 08:25:00,30.0,16.2,30.11,West,281,1.0,3.0,56,0.00,,---,0.00,VWS V14.01,2013-04-02 12:25:00,
2013-04-02 08:29:00,36.9,14.9,30.13,North,350,4.0,7.0,40,0.00,,---,0.00,VWS V14.01,2013-04-02 12:29:00,
2013-04-02 08:30:00,30.3,18.1,30.12,West,281,0.0,2.0,60,0.00,,---,0.00,VWS V14.01,2013-04-02 12:30:00,
2013-04-02 08:34:00,37.3,14.6,30.14,North,360,6.0,12.0,39,0.00,,---,0.00,VWS V14.01,2013-04-02 12:34:00,
2013-04-02 08:35:00,30.6,17.6,30.12,West,281,2.0,2.0,58,0.00,,---,0.00,VWS V14.01,2013-04-02 12:35:00,
2013-04-02 08:39:00,37.7,15.0,30.14,West,265,6.0,12.0,39,0.00,,---,0.00,VWS V14.01,2013-04-02 12:39:00,
2013-04-02 08:40:00,31.2,17.3,30.12,NNW,345,0.0,5.0,56,0.00,,---,0.00,VWS V14.01,2013-04-02 12:40:00,
2013-04-02 08:44:00,37.9,14.6,30.14,West,267,6.0,10.0,38,0.00,,---,0.00,VWS V14.01,2013-04-02 12:44:00,
2013-04-02 08:45:00,31.6,16.9,30.12,North,360,2.0,2.0,54,0.00,,---,0.00,VWS V14.01,2013-04-02 12:45:00,
2013-04-02 08:49:00,38.2,14.8,30.14,WSW,249,6.0,15.0,38,0.00,,---,0.00,VWS V14.01,2013-04-02 12:49:00,
2013-04-02 08:50:00,32.0,17.7,30.12,WSW,246,2.0,5.0,55,0.00,,---,0.00,VWS V14.01,2013-04-02 12:50:00,
2013-04-02 08:54:00,38.3,14.9,30.14,WNW,297,5.0,11.0,38,0.00,,---,0.00,VWS V14.01,2013-04-02 12:54:00,
2013-04-02 08:55:00,32.8,15.8,30.12,NW,312,3.0,12.0,49,0.00,,---,0.00,VWS V14.01,2013-04-02 12:55:00,
2013-04-02 08:59:00,38.6,15.8,30.14,NW,325,2.0,6.0,39,0.00,,---,0.00,VWS V14.01,2013-04-02 12:59:00,
2013-04-02 09:00:00,33.7,16.6,30.13,WNW,284,1.0,8.0,49,0.00,,---,0.00,VWS V14.01,2013-04-02 13:00:00,
2013-04-02 09:04:00,38.9,14.9,30.13,West,277,9.0,17.0,37,0.00,,---,0.00,VWS V14.01,2013-04-02 13:04:00,
2013-04-02 09:05:00,34.4,17.7,30.13,SW,230,6.0,7.0,50,0.00,,---,0.00,VWS V14.01,2013-04-02 13:05:00,
2013-04-02 09:09:00,38.9,14.9,30.13,West,277,9.0,17.0,37,0.00,,---,0.00,VWS V14.01,2013-04-02 13:09:00,
2013-04-02 09:10:00,35.1,16.4,30.13,West,269,3.0,7.0,46,0.00,,---,0.00,VWS V14.01,2013-04-02 13:10:00,
2013-04-02 09:14:00,39.2,15.7,30.13,West,273,4.0,6.0,38,0.00,,---,0.00,VWS V14.01,2013-04-02 13:14:00,
2013-04-02 09:15:00,35.7,16.5,30.13,West,264,12.0,12.0,45,0.00,,---,0.00,VWS V14.01,2013-04-02 13:15:00,
2013-04-02 09:19:00,39.2,14.5,30.14,WNW,297,3.0,12.0,36,0.00,,---,0.00,VWS V14.01,2013-04-02 13:19:00,
2013-04-02 09:20:00,36.3,15.4,30.13,WSW,245,6.0,12.0,42,0.00,,---,0.00,VWS V14.01,2013-04-02 13:20:00,
2013-04-02 09:24:00,39.3,15.8,30.14,West,279,3.0,11.0,38,0.00,,---,0.00,VWS V14.01,2013-04-02 13:24:00,
2013-04-02 09:25:00,36.9,14.9,30.13,North,350,3.0,7.0,40,0.00,,---,0.00,VWS V14.01,2013-04-02 13:25:00,
2013-04-02 09:29:00,39.6,14.9,30.14,WNW,287,2.0,8.0,36,0.00,,---,0.00,VWS V14.01,2013-04-02 13:29:00,
2013-04-02 09:30:00,37.3,14.6,30.14,NNE,21,5.0,12.0,39,0.00,,---,0.00,VWS V14.01,2013-04-02 13:30:00,
2013-04-02 09:34:00,39.9,16.4,30.14,SW,232,5.0,6.0,38,0.00,,---,0.00,VWS V14.01,2013-04-02 13:34:00,
2013-04-02 09:35:00,37.7,15.0,30.14,West,270,10.0,12.0,39,0.00,,---,0.00,VWS V14.01,2013-04-02 13:35:00,
2013-04-02 09:39:00,40.2,14.1,30.14,NW,317,8.0,20.0,34,0.00,,---,0.00,VWS V14.01,2013-04-02 13:39:00,
2013-04-02 09:40:00,37.9,14.6,30.14,WNW,294,4.0,10.0,38,0.00,,---,0.00,VWS V14.01,2013-04-02 13:40:00,
2013-04-02 09:44:00,39.9,13.1,30.14,West,269,5.0,13.0,33,0.00,,---,0.00,VWS V14.01,2013-04-02 13:44:00,
2013-04-02 09:45:00,38.2,14.9,30.14,WSW,246,7.0,15.0,38,0.00,,---,0.00,VWS V14.01,2013-04-02 13:45:00,
2013-04-02 09:49:00,39.9,13.1,30.14,WNW,290,8.0,18.0,33,0.00,,---,0.00,VWS V14.01,2013-04-02 13:49:00,
2013-04-02 09:50:00,38.3,14.9,30.14,WNW,297,4.0,11.0,38,0.00,,---,0.00,VWS V14.01,2013-04-02 13:50:00,
2013-04-02 09:54:00,40.0,13.2,30.14,SSW,206,9.0,14.0,33,0.00,,---,0.00,VWS V14.01,2013-04-02 13:54:00,
2013-04-02 09:55:00,38.6,15.8,30.14,NW,325,3.0,6.0,39,0.00,,---,0.00,VWS V14.01,2013-04-02 13:55:00,
2013-04-02 09:59:00,40.3,14.8,30.14,NNW,331,11.0,11.0,35,0.00,,---,0.00,VWS V14.01,2013-04-02 13:59:00,
2013-04-02 10:00:00,38.9,14.9,30.13,WNW,294,6.0,17.0,37,0.00,,---,0.00,VWS V14.01,2013-04-02 14:00:00,
2013-04-02 10:04:00,40.4,14.3,30.13,WSW,257,12.0,17.0,34,0.00,,---,0.00,VWS V14.01,2013-04-02 14:04:00,
2013-04-02 10:05:00,38.9,14.9,30.13,WNW,288,5.0,17.0,37,0.00,,---,0.00,VWS V14.01,2013-04-02 14:05:00,
2013-04-02 10:09:00,40.7,14.5,30.13,WSW,242,15.0,19.0,34,0.00,,---,0.00,VWS V14.01,2013-04-02 14:09:00,
2013-04-02 10:10:00,39.2,15.7,30.13,West,273,5.0,6.0,38,0.00,,---,0.00,VWS V14.01,2013-04-02 14:10:00,
2013-04-02 10:14:00,40.9,13.3,30.13,West,273,21.0,21.0,32,0.00,,---,0.00,VWS V14.01,2013-04-02 14:14:00,
2013-04-02 10:15:00,39.2,14.5,30.14,WNW,297,1.0,12.0,36,0.00,,---,0.00,VWS V14.01,2013-04-02 14:15:00,
2013-04-02 10:19:00,40.6,13.1,30.14,West,270,5.0,23.0,32,0.00,,---,0.00,VWS V14.01,2013-04-02 14:19:00,
2013-04-02 10:20:00,39.3,15.8,30.14,WSW,245,6.0,11.0,38,0.00,,---,0.00,VWS V14.01,2013-04-02 14:20:00,
2013-04-02 10:24:00,40.7,13.9,30.14,NNW,336,7.0,12.0,33,0.00,,---,0.00,VWS V14.01,2013-04-02 14:24:00,
2013-04-02 10:25:00,39.6,14.9,30.14,WNW,287,2.0,8.0,36,0.00,,---,0.00,VWS V14.01,2013-04-02 14:25:00,
2013-04-02 10:29:00,41.2,12.9,30.14,West,267,2.0,16.0,31,0.00,,---,0.00,VWS V14.01,2013-04-02 14:29:00,
2013-04-02 10:30:00,39.9,16.4,30.14,WNW,302,6.0,6.0,38,0.00,,---,0.00,VWS V14.01,2013-04-02 14:30:00,
2013-04-02 10:34:00,41.3,13.0,30.14,NW,304,4.0,12.0,31,0.00,,---,0.00,VWS V14.01,2013-04-02 14:34:00,
2013-04-02 10:35:00,40.2,14.1,30.14,WSW,250,9.0,20.0,34,0.00,,---,0.00,VWS V14.01,2013-04-02 14:35:00,
2013-04-02 10:39:00,41.7,13.3,30.14,WNW,298,10.0,19.0,31,0.00,,---,0.00,VWS V14.01,2013-04-02 14:39:00,
2013-04-02 10:40:00,39.9,13.1,30.14,WNW,296,9.0,13.0,33,0.00,,---,0.00,VWS V14.01,2013-04-02 14:40:00,
2013-04-02 10:44:00,42.0,15.0,30.14,WNW,285,4.0,14.0,33,0.00,,---,0.00,VWS V14.01,2013-04-02 14:44:00,
2013-04-02 10:45:00,39.7,13.0,30.14,WNW,288,11.0,18.0,33,0.00,,---,0.00,VWS V14.01,2013-04-02 14:45:00,
2013-04-02 10:49:00,42.0,13.6,30.13,WSW,245,11.0,21.0,31,0.00,,---,0.00,VWS V14.01,2013-04-02 14:49:00,
2013-04-02 10:50:00,40.0,13.2,30.14,SSW,213,7.0,14.0,33,0.00,,---,0.00,VWS V14.01,2013-04-02 14:50:00,
2013-04-02 10:54:00,42.3,13.8,30.13,NNW,347,2.0,12.0,31,0.00,,---,0.00,VWS V14.01,2013-04-02 14:54:00,
2013-04-02 10:55:00,40.3,14.8,30.14,NW,304,13.0,13.0,35,0.00,,---,0.00,VWS V14.01,2013-04-02 14:55:00,
2013-04-02 10:59:00,42.7,12.7,30.13,WSW,257,11.0,15.0,29,0.00,,---,0.00,VWS V14.01,2013-04-02 14:59:00,
2013-04-02 11:00:00,40.4,14.3,30.13,WNW,302,6.0,17.0,34,0.00,,---,0.00,VWS V14.01,2013-04-02 15:00:00,
2013-04-02 11:04:00,42.7,11.1,30.13,WNW,300,4.0,17.0,27,0.00,,---,0.00,VWS V14.01,2013-04-02 15:04:00,
2013-04-02 11:05:00,40.7,13.1,30.13,West,263,11.0,19.0,32,0.00,,---,0.00,VWS V14.01,2013-04-02 15:05:00,
2013-04-02 11:09:00,42.6,13.4,30.13,North,350,12.0,19.0,30,0.00,,---,0.00,VWS V14.01,2013-04-02 15:09:00,
2013-04-02 11:10:00,40.9,13.3,30.13,West,266,11.0,21.0,32,0.00,,---,0.00,VWS V14.01,2013-04-02 15:10:00,
2013-04-02 11:14:00,42.4,11.6,30.13,North,360,2.0,18.0,28,0.00,,---,0.00,VWS V14.01,2013-04-02 15:14:00,
2013-04-02 11:15:00,40.6,12.4,30.14,West,271,5.0,23.0,31,0.00,,---,0.00,VWS V14.01,2013-04-02 15:15:00,
2013-04-02 11:19:00,42.6,12.6,30.14,WNW,287,9.0,21.0,29,0.00,,---,0.00,VWS V14.01,2013-04-02 15:19:00,
2013-04-02 11:20:00,40.7,13.9,30.14,North,351,3.0,12.0,33,0.00,,---,0.00,VWS V14.01,2013-04-02 15:20:00,
2013-04-02 11:24:00,42.7,14.9,30.14,SE,129,0.0,10.0,32,0.00,,---,0.00,VWS V14.01,2013-04-02 15:24:00,
2013-04-02 11:25:00,41.2,12.9,30.14,West,268,4.0,16.0,31,0.00,,---,0.00,VWS V14.01,2013-04-02 15:25:00,
2013-04-02 11:29:00,43.4,14.1,30.14,NW,320,10.0,14.0,30,0.00,,---,0.00,VWS V14.01,2013-04-02 15:29:00,
2013-04-02 11:30:00,41.3,13.0,30.14,NW,320,6.0,12.0,31,0.00,,---,0.00,VWS V14.01,2013-04-02 15:30:00,
2013-04-02 11:34:00,43.6,13.5,30.13,NNW,342,4.0,16.0,29,0.00,,---,0.00,VWS V14.01,2013-04-02 15:34:00,
2013-04-02 11:35:00,41.7,13.3,30.14,WNW,288,4.0,19.0,31,0.00,,---,0.00,VWS V14.01,2013-04-02 15:35:00,
2013-04-02 11:39:00,43.6,12.7,30.13,WNW,292,6.0,18.0,28,0.00,,---,0.00,VWS V14.01,2013-04-02 15:39:00,
2013-04-02 11:40:00,42.0,13.6,30.14,WSW,257,9.0,14.0,31,0.00,,---,0.00,VWS V14.01,2013-04-02 15:40:00,
2013-04-02 11:43:00,43.4,11.7,30.13,NW,313,18.0,23.0,27,0.00,,---,0.00,VWS V14.01,2013-04-02 15:43:00,
2013-04-02 11:45:00,42.0,14.3,30.13,WSW,245,12.0,21.0,32,0.00,,---,0.00,VWS V14.01,2013-04-02 15:45:00,
2013-04-02 11:48:00,43.7,15.8,30.13,West,277,12.0,17.0,32,0.00,,---,0.00,VWS V14.01,2013-04-02 15:48:00,
2013-04-02 11:50:00,42.4,14.6,30.13,West,266,9.0,12.0,32,0.00,,---,0.00,VWS V14.01,2013-04-02 15:50:00,
2013-04-02 11:54:00,44.0,13.8,30.13,WNW,286,2.0,17.0,29,0.00,,---,0.00,VWS V14.01,2013-04-02 15:54:00,
2013-04-02 11:55:00,42.7,12.7,30.13,WNW,293,8.0,15.0,29,0.00,,---,0.00,VWS V14.01,2013-04-02 15:55:00,
2013-04-02 11:59:00,44.6,14.3,30.13,WNW,291,8.0,13.0,29,0.00,,---,0.00,VWS V14.01,2013-04-02 15:59:00,
2013-04-02 12:00:00,42.9,11.2,30.13,North,5,2.0,17.0,27,0.00,,---,0.00,VWS V14.01,2013-04-02 16:00:00,
2013-04-02 12:04:00,44.8,12.9,30.13,WSW,251,6.0,11.0,27,0.00,,---,0.00,VWS V14.01,2013-04-02 16:04:00,
2013-04-02 12:05:00,42.6,13.4,30.13,NNW,340,13.0,19.0,30,0.00,,---,0.00,VWS V14.01,2013-04-02 16:05:00,
2013-04-02 12:09:00,45.1,11.4,30.13,WNW,286,15.0,21.0,25,0.00,,---,0.00,VWS V14.01,2013-04-02 16:09:00,
2013-04-02 12:10:00,42.4,13.9,30.13,West,259,14.0,18.0,31,0.00,,---,0.00,VWS V14.01,2013-04-02 16:10:00,
2013-04-02 12:14:00,44.8,12.0,30.13,NW,314,9.0,17.0,26,0.00,,---,0.00,VWS V14.01,2013-04-02 16:14:00,
2013-04-02 12:15:00,42.6,14.1,30.14,NW,311,10.0,21.0,31,0.00,,---,0.00,VWS V14.01,2013-04-02 16:15:00,
2013-04-02 12:19:00,44.6,10.1,30.13,WNW,297,13.0,17.0,24,0.00,,---,0.00,VWS V14.01,2013-04-02 16:19:00,
2013-04-02 12:20:00,42.9,13.6,30.14,WNW,295,6.0,10.0,30,0.00,,---,0.00,VWS V14.01,2013-04-02 16:20:00,
2013-04-02 12:24:00,44.2,12.4,30.13,NNW,336,15.0,21.0,27,0.00,,---,0.00,VWS V14.01,2013-04-02 16:24:00,
2013-04-02 12:25:00,43.4,14.1,30.14,NW,323,8.0,14.0,30,0.00,,---,0.00,VWS V14.01,2013-04-02 16:25:00,
2013-04-02 12:29:00,44.5,16.5,30.13,SW,236,14.0,17.0,32,0.00,,---,0.00,VWS V14.01,2013-04-02 16:29:00,
2013-04-02 12:30:00,43.6,13.4,30.13,WNW,290,3.0,16.0,29,0.00,,---,0.00,VWS V14.01,2013-04-02 16:30:00,
2013-04-02 12:34:00,44.9,12.1,30.12,WSW,257,11.0,25.0,26,0.00,,---,0.00,VWS V14.01,2013-04-02 16:34:00,
2013-04-02 12:35:00,43.6,12.7,30.13,NNW,348,5.0,18.0,28,0.00,,---,0.00,VWS V14.01,2013-04-02 16:35:00,
2013-04-02 12:39:00,44.8,10.2,30.12,NNW,335,11.0,17.0,24,0.00,,---,0.00,VWS V14.01,2013-04-02 16:39:00,
2013-04-02 12:40:00,43.4,12.5,30.13,West,269,7.0,23.0,28,0.00,,---,0.00,VWS V14.01,2013-04-02 16:40:00,
2013-04-02 12:44:00,45.1,12.3,30.12,NW,308,10.0,15.0,26,0.00,,---,0.00,VWS V14.01,2013-04-02 16:44:00,
2013-04-02 12:45:00,43.7,13.5,30.13,West,279,4.0,17.0,29,0.00,,---,0.00,VWS V14.01,2013-04-02 16:45:00,
2013-04-02 12:49:00,45.8,12.9,30.12,WNW,294,11.0,16.0,26,0.00,,---,0.00,VWS V14.01,2013-04-02 16:49:00,
2013-04-02 12:50:00,44.0,13.0,30.13,WNW,286,1.0,17.0,28,0.00,,---,0.00,VWS V14.01,2013-04-02 16:50:00,
2013-04-02 12:54:00,45.9,11.2,30.12,NW,314,15.0,22.0,24,0.00,,---,0.00,VWS V14.01,2013-04-02 16:54:00,
2013-04-02 12:55:00,44.6,13.5,30.13,NW,308,9.0,13.0,28,0.00,,---,0.00,VWS V14.01,2013-04-02 16:55:00,
2013-04-02 12:59:00,45.8,10.1,30.12,West,259,6.0,15.0,23,0.00,,---,0.00,VWS V14.01,2013-04-02 16:59:00,
2013-04-02 13:00:00,44.9,13.8,30.13,NW,322,5.0,11.0,28,0.00,,---,0.00,VWS V14.01,2013-04-02 17:00:00,
2013-04-02 13:04:00,45.6,9.9,30.11,NNW,333,21.0,21.0,23,0.00,,---,0.00,VWS V14.01,2013-04-02 17:04:00,
2013-04-02 13:05:00,45.1,11.4,30.13,NW,325,17.0,21.0,25,0.00,,---,0.00,VWS V14.01,2013-04-02 17:05:00,
2013-04-02 13:09:00,45.5,10.8,30.11,SW,221,4.0,16.0,24,0.00,,---,0.00,VWS V14.01,2013-04-02 17:09:00,
2013-04-02 13:10:00,44.8,12.0,30.13,NW,317,2.0,17.0,26,0.00,,---,0.00,VWS V14.01,2013-04-02 17:10:00,
2013-04-02 13:14:00,46.5,13.5,30.11,West,262,6.0,15.0,26,0.00,,---,0.00,VWS V14.01,2013-04-02 17:14:00,
2013-04-02 13:15:00,44.6,10.1,30.13,North,360,15.0,18.0,24,0.00,,---,0.00,VWS V14.01,2013-04-02 17:15:00,
2013-04-02 13:19:00,47.0,11.1,30.11,West,267,9.0,24.0,23,0.00,,---,0.00,VWS V14.01,2013-04-02 17:19:00,
2013-04-02 13:20:00,44.2,12.4,30.13,North,360,16.0,21.0,27,0.00,,---,0.00,VWS V14.01,2013-04-02 17:20:00,
2013-04-02 13:24:00,47.1,9.2,30.11,WNW,302,9.0,17.0,21,0.00,,---,0.00,VWS V14.01,2013-04-02 17:24:00,
2013-04-02 13:25:00,44.5,16.5,30.13,WSW,246,10.0,17.0,32,0.00,,---,0.00,VWS V14.01,2013-04-02 17:25:00,
2013-04-02 13:29:00,47.0,10.1,30.11,SW,219,22.0,22.0,22,0.00,,---,0.00,VWS V14.01,2013-04-02 17:29:00,
2013-04-02 13:30:00,44.9,13.0,30.12,WNW,293,16.0,25.0,27,0.00,,---,0.00,VWS V14.01,2013-04-02 17:30:00,
2013-04-02 13:34:00,47.1,11.2,30.10,WNW,294,4.0,20.0,23,0.00,,---,0.00,VWS V14.01,2013-04-02 17:34:00,
2013-04-02 13:35:00,44.8,10.2,30.12,NNW,346,13.0,17.0,24,0.00,,---,0.00,VWS V14.01,2013-04-02 17:35:00,
2013-04-02 13:39:00,47.3,10.4,30.10,WNW,300,6.0,31.0,22,0.00,,---,0.00,VWS V14.01,2013-04-02 17:39:00,
2013-04-02 13:40:00,45.2,12.4,30.12,West,264,9.0,15.0,26,0.00,,---,0.00,VWS V14.01,2013-04-02 17:40:00,
2013-04-02 13:44:00,47.3,10.4,30.10,WSW,257,16.0,23.0,22,0.00,,---,0.00,VWS V14.01,2013-04-02 17:44:00,
2013-04-02 13:45:00,45.8,12.9,30.12,NW,319,5.0,16.0,26,0.00,,---,0.00,VWS V14.01,2013-04-02 17:45:00,
2013-04-02 13:49:00,47.1,10.2,30.10,NNW,347,7.0,16.0,22,0.00,,---,0.00,VWS V14.01,2013-04-02 17:49:00,
2013-04-02 13:50:00,45.9,11.2,30.12,NW,313,10.0,22.0,24,0.00,,---,0.00,VWS V14.01,2013-04-02 17:50:00,
2013-04-02 13:54:00,47.6,9.6,30.10,NE,56,9.0,12.0,21,0.00,,---,0.00,VWS V14.01,2013-04-02 17:54:00,
2013-04-02 13:55:00,45.8,12.9,30.12,NW,313,13.0,17.0,26,0.00,,---,0.00,VWS V14.01,2013-04-02 17:55:00,
2013-04-02 13:59:00,47.4,10.5,30.10,NW,305,5.0,18.0,22,0.00,,---,0.00,VWS V14.01,2013-04-02 17:59:00,
2013-04-02 14:00:00,45.6,9.9,30.11,NNW,345,9.0,21.0,23,0.00,,---,0.00,VWS V14.01,2013-04-02 18:00:00,
2013-04-02 14:04:00,47.6,9.6,30.07,SW,217,20.0,28.0,21,0.00,,---,0.00,VWS V14.01,2013-04-02 18:04:00,
2013-04-02 14:05:00,45.6,10.9,30.11,SW,221,3.0,16.0,24,0.00,,---,0.00,VWS V14.01,2013-04-02 18:05:00,
2013-04-02 14:09:00,47.7,12.7,30.07,NW,311,9.0,28.0,24,0.00,,---,0.00,VWS V14.01,2013-04-02 18:09:00,
2013-04-02 14:10:00,46.7,13.6,30.11,WSW,258,11.0,15.0,26,0.00,,---,0.00,VWS V14.01,2013-04-02 18:10:00,
2013-04-02 14:14:00,47.6,9.6,30.07,NW,309,6.0,23.0,21,0.00,,---,0.00,VWS V14.01,2013-04-02 18:14:00,
2013-04-02 14:15:00,47.0,11.1,30.11,West,264,9.0,24.0,23,0.00,,---,0.00,VWS V14.01,2013-04-02 18:15:00,
2013-04-02 14:19:00,47.7,12.7,30.08,West,269,9.0,10.0,24,0.00,,---,0.00,VWS V14.01,2013-04-02 18:19:00,
2013-04-02 14:20:00,47.1,9.2,30.11,NW,319,13.0,17.0,21,0.00,,---,0.00,VWS V14.01,2013-04-02 18:20:00,
2013-04-02 14:24:00,48.0,11.0,30.08,NNW,336,6.0,16.0,22,0.00,,---,0.00,VWS V14.01,2013-04-02 18:24:00,
2013-04-02 14:25:00,47.0,10.1,30.11,SW,217,16.0,22.0,22,0.00,,---,0.00,VWS V14.01,2013-04-02 18:25:00,
2013-04-02 14:29:00,48.5,10.4,30.08,WSW,258,12.0,19.0,21,0.00,,---,0.00,VWS V14.01,2013-04-02 18:29:00,
2013-04-02 14:30:00,47.1,11.2,30.10,NW,324,5.0,20.0,23,0.00,,---,0.00,VWS V14.01,2013-04-02 18:30:00,
2013-04-02 14:34:00,48.3,9.1,30.07,WSW,240,6.0,15.0,20,0.00,,---,0.00,VWS V14.01,2013-04-02 18:34:00,
2013-04-02 14:35:00,47.3,9.4,30.10,WNW,290,9.0,31.0,21,0.00,,---,0.00,VWS V14.01,2013-04-02 18:35:00,
2013-04-02 14:39:00,48.6,11.5,30.07,NW,321,9.0,12.0,22,0.00,,---,0.00,VWS V14.01,2013-04-02 18:39:00,
2013-04-02 14:40:00,47.1,10.2,30.10,WSW,246,11.0,23.0,22,0.00,,---,0.00,VWS V14.01,2013-04-02 18:40:00,
2013-04-02 14:44:00,48.6,9.4,30.07,NW,309,11.0,19.0,20,0.00,,---,0.00,VWS V14.01,2013-04-02 18:44:00,
2013-04-02 14:45:00,47.1,10.2,30.10,NW,309,9.0,16.0,22,0.00,,---,0.00,VWS V14.01,2013-04-02 18:45:00,
2013-04-02 14:49:00,48.2,9.0,30.07,NNW,340,6.0,16.0,20,0.00,,---,0.00,VWS V14.01,2013-04-02 18:49:00,
2013-04-02 14:50:00,47.6,9.6,30.10,NE,43,6.0,12.0,21,0.00,,---,0.00,VWS V14.01,2013-04-02 18:50:00,
2013-04-02 14:54:00,48.2,11.1,30.07,WNW,287,17.0,20.0,22,0.00,,---,0.00,VWS V14.01,2013-04-02 18:54:00,
2013-04-02 14:55:00,47.6,10.6,30.10,WNW,299,12.0,18.0,22,0.00,,---,0.00,VWS V14.01,2013-04-02 18:55:00,
2013-04-02 14:59:00,48.2,9.0,30.07,SW,224,12.0,20.0,20,0.00,,---,0.00,VWS V14.01,2013-04-02 18:59:00,
2013-04-02 15:00:00,47.6,9.6,30.07,SSW,213,28.0,28.0,21,0.00,,---,0.00,VWS V14.01,2013-04-02 19:00:00,
2013-04-02 15:04:00,48.6,11.5,30.07,WSW,250,13.0,17.0,22,0.00,,---,0.00,VWS V14.01,2013-04-02 19:04:00,
2013-04-02 15:05:00,47.7,12.7,30.07,NW,311,9.0,28.0,24,0.00,,---,0.00,VWS V14.01,2013-04-02 19:05:00,
2013-04-02 15:09:00,48.7,11.6,30.07,WSW,249,0.0,14.0,22,0.00,,---,0.00,VWS V14.01,2013-04-02 19:09:00,
2013-04-02 15:10:00,47.6,9.6,30.07,NW,322,6.0,23.0,21,0.00,,---,0.00,VWS V14.01,2013-04-02 19:10:00,
2013-04-02 15:14:00,48.9,7.3,30.07,West,271,9.0,19.0,18,0.00,,---,0.00,VWS V14.01,2013-04-02 19:14:00,
2013-04-02 15:15:00,47.7,12.7,30.08,West,269,9.0,10.0,24,0.00,,---,0.00,VWS V14.01,2013-04-02 19:15:00,
2013-04-02 15:19:00,48.5,6.9,30.07,West,281,3.0,22.0,18,0.00,,---,0.00,VWS V14.01,2013-04-02 19:19:00,
2013-04-02 15:20:00,48.0,11.0,30.08,NNW,336,6.0,16.0,22,0.00,,---,0.00,VWS V14.01,2013-04-02 19:20:00,
2013-04-02 15:24:00,48.5,6.9,30.07,NW,315,16.0,24.0,18,0.00,,---,0.00,VWS V14.01,2013-04-02 19:24:00,
2013-04-02 15:25:00,48.5,10.4,30.08,WSW,258,12.0,19.0,21,0.00,,---,0.00,VWS V14.01,2013-04-02 19:25:00,
2013-04-02 15:29:00,48.5,10.4,30.07,WSW,240,4.0,17.0,21,0.00,,---,0.00,VWS V14.01,2013-04-02 19:29:00,
2013-04-02 15:30:00,48.3,9.1,30.07,WSW,240,6.0,15.0,20,0.00,,---,0.00,VWS V14.01,2013-04-02 19:30:00,
2013-04-02 15:34:00,48.9,7.3,30.07,WNW,303,10.0,10.0,18,0.00,,---,0.00,VWS V14.01,2013-04-02 19:34:00,
2013-04-02 15:35:00,48.6,11.5,30.07,NW,321,9.0,12.0,22,0.00,,---,0.00,VWS V14.01,2013-04-02 19:35:00,
2013-04-02 15:39:00,49.0,9.7,30.07,NW,316,10.0,17.0,20,0.00,,---,0.00,VWS V14.01,2013-04-02 19:39:00,
2013-04-02 15:40:00,48.6,9.4,30.07,NW,309,11.0,19.0,20,0.00,,---,0.00,VWS V14.01,2013-04-02 19:40:00,
2013-04-02 15:44:00,49.0,8.6,30.07,WSW,252,5.0,6.0,19,0.00,,---,0.00,VWS V14.01,2013-04-02 19:44:00,
2013-04-02 15:45:00,48.2,9.0,30.07,NNW,340,6.0,16.0,20,0.00,,---,0.00,VWS V14.01,2013-04-02 19:45:00,
2013-04-02 15:49:00,48.7,9.4,30.06,East,92,2.0,2.0,20,0.00,,---,0.00,VWS V14.01,2013-04-02 19:49:00,
2013-04-02 15:50:00,48.2,11.1,30.07,WNW,287,17.0,20.0,22,0.00,,---,0.00,VWS V14.01,2013-04-02 19:50:00,
2013-04-02 15:54:00,49.2,8.7,30.06,WNW,283,10.0,20.0,19,0.00,,---,0.00,VWS V14.01,2013-04-02 19:54:00,
2013-04-02 15:55:00,48.2,9.0,30.07,SW,224,12.0,20.0,20,0.00,,---,0.00,VWS V14.01,2013-04-02 19:55:00,
2013-04-02 15:59:00,49.3,9.9,30.06,NW,320,18.0,18.0,20,0.00,,---,0.00,VWS V14.01,2013-04-02 19:59:00,
2013-04-02 16:00:00,48.6,11.5,30.07,WSW,239,12.0,17.0,22,0.00,,---,0.00,VWS V14.01,2013-04-02 20:00:00,
2013-04-02 16:04:00,49.0,9.7,30.06,WSW,241,14.0,21.0,20,0.00,,---,0.00,VWS V14.01,2013-04-02 20:04:00,
2013-04-02 16:05:00,48.7,11.6,30.07,WSW,249,0.0,14.0,22,0.00,,---,0.00,VWS V14.01,2013-04-02 20:05:00,
2013-04-02 16:09:00,48.9,9.6,30.06,SW,223,14.0,17.0,20,0.00,,---,0.00,VWS V14.01,2013-04-02 20:09:00,
2013-04-02 16:10:00,48.9,7.3,30.07,West,264,14.0,19.0,18,0.00,,---,0.00,VWS V14.01,2013-04-02 20:10:00,
2013-04-02 16:14:00,48.7,12.6,30.06,West,266,1.0,17.0,23,0.00,,---,0.00,VWS V14.01,2013-04-02 20:14:00,
2013-04-02 16:15:00,48.5,6.9,30.07,West,275,5.0,22.0,18,0.00,,---,0.00,VWS V14.01,2013-04-02 20:15:00,
2013-04-02 16:19:00,49.2,9.9,30.06,North,10,9.0,13.0,20,0.00,,---,0.00,VWS V14.01,2013-04-02 20:19:00,
2013-04-02 16:20:00,48.5,6.9,30.07,NW,315,16.0,24.0,18,0.00,,---,0.00,VWS V14.01,2013-04-02 20:20:00,
2013-04-02 16:24:00,49.3,7.6,30.06,WSW,257,11.0,16.0,18,0.00,,---,0.00,VWS V14.01,2013-04-02 20:24:00,
2013-04-02 16:25:00,48.5,10.4,30.07,West,272,5.0,17.0,21,0.00,,---,0.00,VWS V14.01,2013-04-02 20:25:00,
2013-04-02 16:29:00,49.2,8.7,30.06,NW,312,6.0,9.0,19,0.00,,---,0.00,VWS V14.01,2013-04-02 20:29:00,
2013-04-02 16:30:00,48.9,7.3,30.07,West,262,9.0,18.0,18,0.00,,---,0.00,VWS V14.01,2013-04-02 20:30:00,
2013-04-02 16:34:00,49.2,8.7,30.06,WNW,301,20.0,20.0,19,0.00,,---,0.00,VWS V14.01,2013-04-02 20:34:00,
2013-04-02 16:35:00,49.0,9.7,30.07,NW,316,10.0,17.0,20,0.00,,---,0.00,VWS V14.01,2013-04-02 20:35:00,
2013-04-02 16:39:00,49.2,8.7,30.06,WNW,292,11.0,20.0,19,0.00,,---,0.00,VWS V14.01,2013-04-02 20:39:00,
2013-04-02 16:40:00,49.0,8.6,30.07,WNW,302,6.0,19.0,19,0.00,,---,0.00,VWS V14.01,2013-04-02 20:40:00,
2013-04-02 16:44:00,49.0,12.8,30.06,West,281,7.0,17.0,23,0.00,,---,0.00,VWS V14.01,2013-04-02 20:44:00,
2013-04-02 16:45:00,48.7,9.4,30.06,NNE,26,0.0,13.0,20,0.00,,---,0.00,VWS V14.01,2013-04-02 20:45:00,
2013-04-02 16:49:00,49.5,11.2,30.06,WNW,301,5.0,21.0,21,0.00,,---,0.00,VWS V14.01,2013-04-02 20:49:00,
2013-04-02 16:50:00,49.2,8.7,30.06,WNW,283,10.0,20.0,19,0.00,,---,0.00,VWS V14.01,2013-04-02 20:50:00,
2013-04-02 16:54:00,49.8,10.4,30.06,NNW,345,7.0,12.0,20,0.00,,---,0.00,VWS V14.01,2013-04-02 20:54:00,
2013-04-02 16:55:00,49.3,9.9,30.06,NW,319,9.0,20.0,20,0.00,,---,0.00,VWS V14.01,2013-04-02 20:55:00,
2013-04-02 16:59:00,49.6,7.8,30.06,WSW,254,11.0,15.0,18,0.00,,---,0.00,VWS V14.01,2013-04-02 20:59:00,
2013-04-02 17:00:00,49.0,8.6,30.06,WSW,254,10.0,21.0,19,0.00,,---,0.00,VWS V14.01,2013-04-02 21:00:00,
2013-04-02 17:04:00,49.5,7.8,30.06,West,261,4.0,19.0,18,0.00,,---,0.00,VWS V14.01,2013-04-02 21:04:00,
2013-04-02 17:05:00,48.9,9.6,30.06,WSW,246,17.0,20.0,20,0.00,,---,0.00,VWS V14.01,2013-04-02 21:05:00,
2013-04-02 17:09:00,49.2,8.7,30.06,NW,311,5.0,12.0,19,0.00,,---,0.00,VWS V14.01,2013-04-02 21:09:00,
2013-04-02 17:10:00,48.7,12.6,30.06,West,266,1.0,17.0,23,0.00,,---,0.00,VWS V14.01,2013-04-02 21:10:00,
2013-04-02 17:14:00,49.0,7.4,30.06,SW,235,6.0,18.0,18,0.00,,---,0.00,VWS V14.01,2013-04-02 21:14:00,
2013-04-02 17:15:00,49.2,9.9,30.06,NNW,327,13.0,15.0,20,0.00,,---,0.00,VWS V14.01,2013-04-02 21:15:00,
2013-04-02 17:19:00,48.9,8.5,30.06,West,280,2.0,14.0,19,0.00,,---,0.00,VWS V14.01,2013-04-02 21:19:00,
2013-04-02 17:20:00,49.3,7.6,30.06,WSW,257,11.0,16.0,18,0.00,,---,0.00,VWS V14.01,2013-04-02 21:20:00,
2013-04-02 17:24:00,49.0,9.7,30.06,NW,326,13.0,17.0,20,0.00,,---,0.00,VWS V14.01,2013-04-02 21:24:00,
2013-04-02 17:25:00,49.2,8.7,30.06,NW,320,9.0,20.0,19,0.00,,---,0.00,VWS V14.01,2013-04-02 21:25:00,
2013-04-02 17:29:00,48.9,9.6,30.06,West,269,7.0,20.0,20,0.00,,---,0.00,VWS V14.01,2013-04-02 21:29:00,
2013-04-02 17:30:00,49.2,8.7,30.06,WNW,301,20.0,20.0,19,0.00,,---,0.00,VWS V14.01,2013-04-02 21:30:00,
2013-04-02 17:34:00,48.7,9.4,30.06,NW,315,5.0,14.0,20,0.00,,---,0.00,VWS V14.01,2013-04-02 21:34:00,
2013-04-02 17:35:00,49.2,8.7,30.06,WNW,292,11.0,20.0,19,0.00,,---,0.00,VWS V14.01,2013-04-02 21:35:00,
2013-04-02 17:39:00,48.7,8.3,30.06,WNW,289,6.0,16.0,19,0.00,,---,0.00,VWS V14.01,2013-04-02 21:39:00,
2013-04-02 17:40:00,49.0,12.8,30.06,West,281,7.0,17.0,23,0.00,,---,0.00,VWS V14.01,2013-04-02 21:40:00,
2013-04-02 17:44:00,48.6,9.4,30.06,NNW,337,9.0,18.0,20,0.00,,---,0.00,VWS V14.01,2013-04-02 21:44:00,
2013-04-02 17:45:00,49.5,11.2,30.06,WNW,302,4.0,21.0,21,0.00,,---,0.00,VWS V14.01,2013-04-02 21:45:00,
2013-04-02 17:49:00,48.5,9.3,30.07,West,279,13.0,13.0,20,0.00,,---,0.00,VWS V14.01,2013-04-02 21:49:00,
2013-04-02 17:50:00,49.8,10.4,30.06,NNW,345,7.0,12.0,20,0.00,,---,0.00,VWS V14.01,2013-04-02 21:50:00,
2013-04-02 17:54:00,48.6,8.2,30.07,NNW,331,5.0,13.0,19,0.00,,---,0.00,VWS V14.01,2013-04-02 21:54:00,
2013-04-02 17:55:00,49.6,7.8,30.06,WSW,254,11.0,15.0,18,0.00,,---,0.00,VWS V14.01,2013-04-02 21:55:00,
2013-04-02 17:59:00,48.6,9.4,30.07,WNW,284,10.0,20.0,20,0.00,,---,0.00,VWS V14.01,2013-04-02 21:59:00,
2013-04-02 18:00:00,49.5,7.8,30.06,West,261,4.0,19.0,18,0.00,,---,0.00,VWS V14.01,2013-04-02 22:00:00,
2013-04-02 18:04:00,48.6,10.4,30.08,WNW,291,4.0,14.0,21,0.00,,---,0.00,VWS V14.01,2013-04-02 22:04:00,
2013-04-02 18:05:00,49.2,8.7,30.06,NW,311,5.0,12.0,19,0.00,,---,0.00,VWS V14.01,2013-04-02 22:05:00,
2013-04-02 18:09:00,48.7,9.4,30.08,North,11,1.0,6.0,20,0.00,,---,0.00,VWS V14.01,2013-04-02 22:09:00,
2013-04-02 18:10:00,49.0,7.4,30.06,SW,235,6.0,18.0,18,0.00,,---,0.00,VWS V14.01,2013-04-02 22:10:00,
2013-04-02 18:14:00,48.7,9.4,30.08,NNW,338,7.0,15.0,20,0.00,,---,0.00,VWS V14.01,2013-04-02 22:14:00,
2013-04-02 18:15:00,48.9,8.5,30.06,West,280,2.0,14.0,19,0.00,,---,0.00,VWS V14.01,2013-04-02 22:15:00,
2013-04-02 18:19:00,48.7,8.3,30.08,North,349,6.0,11.0,19,0.00,,---,0.00,VWS V14.01,2013-04-02 22:19:00,
2013-04-02 18:20:00,49.0,9.7,30.06,NW,326,13.0,17.0,20,0.00,,---,0.00,VWS V14.01,2013-04-02 22:20:00,
2013-04-02 18:24:00,48.7,9.4,30.08,WSW,254,10.0,11.0,20,0.00,,---,0.00,VWS V14.01,2013-04-02 22:24:00,
2013-04-02 18:25:00,48.9,9.6,30.06,West,269,7.0,20.0,20,0.00,,---,0.00,VWS V14.01,2013-04-02 22:25:00,
2013-04-02 18:29:00,48.6,9.4,30.08,WNW,302,14.0,21.0,20,0.00,,---,0.00,VWS V14.01,2013-04-02 22:29:00,
2013-04-02 18:30:00,48.7,9.4,30.06,NW,315,5.0,14.0,20,0.00,,---,0.00,VWS V14.01,2013-04-02 22:30:00,
2013-04-02 18:34:00,48.2,7.9,30.09,WNW,296,3.0,16.0,19,0.00,,---,0.00,VWS V14.01,2013-04-02 22:34:00,
2013-04-02 18:35:00,48.7,8.3,30.06,WNW,291,5.0,16.0,19,0.00,,---,0.00,VWS V14.01,2013-04-02 22:35:00,
2013-04-02 18:39:00,48.0,7.7,30.09,WNW,298,6.0,8.0,19,0.00,,---,0.00,VWS V14.01,2013-04-02 22:39:00,
2013-04-02 18:40:00,48.6,8.2,30.06,North,360,8.0,18.0,19,0.00,,---,0.00,VWS V14.01,2013-04-02 22:40:00,
2013-04-02 18:44:00,47.9,9.9,30.09,NNW,347,3.0,5.0,21,0.00,,---,0.00,VWS V14.01,2013-04-02 22:44:00,
2013-04-02 18:45:00,48.5,9.3,30.07,West,279,13.0,13.0,20,0.00,,---,0.00,VWS V14.01,2013-04-02 22:45:00,
2013-04-02 18:49:00,47.6,9.6,30.09,NNW,329,11.0,12.0,21,0.00,,---,0.00,VWS V14.01,2013-04-02 22:49:00,
2013-04-02 18:50:00,48.6,8.2,30.07,NW,325,3.0,13.0,19,0.00,,---,0.00,VWS V14.01,2013-04-02 22:50:00,
2013-04-02 18:54:00,47.1,8.1,30.09,NNW,336,4.0,14.0,20,0.00,,---,0.00,VWS V14.01,2013-04-02 22:54:00,
2013-04-02 18:55:00,48.6,9.4,30.07,WNW,300,14.0,20.0,20,0.00,,---,0.00,VWS V14.01,2013-04-02 22:55:00,
2013-04-02 18:59:00,46.7,7.8,30.09,WNW,292,6.0,13.0,20,0.00,,---,0.00,VWS V14.01,2013-04-02 22:59:00,
2013-04-02 19:00:00,48.6,10.4,30.08,WNW,290,4.0,14.0,21,0.00,,---,0.00,VWS V14.01,2013-04-02 23:00:00,
2013-04-02 19:04:00,46.5,8.7,30.10,NW,313,7.0,11.0,21,0.00,,---,0.00,VWS V14.01,2013-04-02 23:04:00,
2013-04-02 19:05:00,48.7,9.4,30.08,North,11,1.0,6.0,20,0.00,,---,0.00,VWS V14.01,2013-04-02 23:05:00,
2013-04-02 19:09:00,46.2,8.4,30.10,NNW,329,0.0,7.0,21,0.00,,---,0.00,VWS V14.01,2013-04-02 23:09:00,
2013-04-02 19:10:00,48.7,9.4,30.08,NNW,346,5.0,15.0,20,0.00,,---,0.00,VWS V14.01,2013-04-02 23:10:00,
2013-04-02 19:14:00,45.9,9.2,30.10,NNW,329,1.0,4.0,22,0.00,,---,0.00,VWS V14.01,2013-04-02 23:14:00,
2013-04-02 19:15:00,48.7,9.4,30.08,NNW,337,6.0,11.0,20,0.00,,---,0.00,VWS V14.01,2013-04-02 23:15:00,
2013-04-02 19:19:00,45.6,9.9,30.10,NW,304,1.0,9.0,23,0.00,,---,0.00,VWS V14.01,2013-04-02 23:19:00,
2013-04-02 19:20:00,48.7,9.4,30.08,SW,231,7.0,11.0,20,0.00,,---,0.00,VWS V14.01,2013-04-02 23:20:00,
2013-04-02 19:24:00,45.3,9.7,30.10,NW,305,0.0,2.0,23,0.00,,---,0.00,VWS V14.01,2013-04-02 23:24:00,
2013-04-02 19:25:00,48.6,9.4,30.08,WNW,292,16.0,21.0,20,0.00,,---,0.00,VWS V14.01,2013-04-02 23:25:00,
2013-04-02 19:29:00,45.1,8.5,30.10,North,355,3.0,6.0,22,0.00,,---,0.00,VWS V14.01,2013-04-02 23:29:00,
2013-04-02 19:30:00,48.2,7.9,30.09,WNW,296,3.0,16.0,19,0.00,,---,0.00,VWS V14.01,2013-04-02 23:30:00,
2013-04-02 19:34:00,44.9,9.4,30.10,North,355,4.0,6.0,23,0.00,,---,0.00,VWS V14.01,2013-04-02 23:34:00,
2013-04-02 19:35:00,48.0,7.7,30.09,WNW,298,4.0,8.0,19,0.00,,---,0.00,VWS V14.01,2013-04-02 23:35:00,
2013-04-02 19:39:00,44.6,9.1,30.10,North,355,1.0,6.0,23,0.00,,---,0.00,VWS V14.01,2013-04-02 23:39:00,
2013-04-02 19:40:00,47.9,9.9,30.09,NNW,327,6.0,6.0,21,0.00,,---,0.00,VWS V14.01,2013-04-02 23:40:00,
2013-04-02 19:44:00,44.3,7.9,30.10,North,350,4.0,10.0,22,0.00,,---,0.00,VWS V14.01,2013-04-02 23:44:00,
2013-04-02 19:45:00,47.6,9.6,30.09,NW,324,14.0,14.0,21,0.00,,---,0.00,VWS V14.01,2013-04-02 23:45:00,
2013-04-02 19:49:00,44.2,7.8,30.11,NW,311,3.0,10.0,22,0.00,,---,0.00,VWS V14.01,2013-04-02 23:49:00,
2013-04-02 19:50:00,47.1,8.1,30.09,North,355,4.0,14.0,20,0.00,,---,0.00,VWS V14.01,2013-04-02 23:50:00,
2013-04-02 19:54:00,44.2,8.8,30.11,North,5,2.0,6.0,23,0.00,,---,0.00,VWS V14.01,2013-04-02 23:54:00,
2013-04-02 19:55:00,46.7,7.8,30.09,NW,307,5.0,13.0,20,0.00,,---,0.00,VWS V14.01,2013-04-02 23:55:00,
2013-04-02 19:59:00,44.0,8.6,30.11,North,10,1.0,6.0,23,0.00,,---,0.00,VWS V14.01,2013-04-02 23:59:00,
2013-04-02 20:00:00,46.5,8.7,30.10,NNW,348,6.0,11.0,21,0.00,,---,0.00,VWS V14.01,2013-04-03 00:00:00,
2013-04-02 20:04:00,43.7,9.3,30.12,NNW,345,3.0,13.0,24,0.00,,---,0.00,VWS V14.01,2013-04-03 00:04:00,
2013-04-02 20:05:00,46.2,8.4,30.10,NNW,329,1.0,7.0,21,0.00,,---,0.00,VWS V14.01,2013-04-03 00:05:00,
2013-04-02 20:09:00,43.4,9.9,30.12,North,350,3.0,6.0,25,0.00,,---,0.00,VWS V14.01,2013-04-03 00:09:00,
2013-04-02 20:10:00,45.9,9.2,30.10,NNW,329,2.0,4.0,22,0.00,,---,0.00,VWS V14.01,2013-04-03 00:10:00,
2013-04-02 20:14:00,43.2,8.9,30.12,NNW,340,3.0,6.0,24,0.00,,---,0.00,VWS V14.01,2013-04-03 00:14:00,
2013-04-02 20:15:00,45.6,9.9,30.10,NW,304,2.0,9.0,23,0.00,,---,0.00,VWS V14.01,2013-04-03 00:15:00,
2013-04-02 20:19:00,42.9,8.6,30.12,NNW,339,2.0,5.0,24,0.00,,---,0.00,VWS V14.01,2013-04-03 00:19:00,
2013-04-02 20:20:00,45.3,9.7,30.10,NW,305,0.0,2.0,23,0.00,,---,0.00,VWS V14.01,2013-04-03 00:20:00,
2013-04-02 20:24:00,42.7,8.4,30.12,NNE,13,3.0,5.0,24,0.00,,---,0.00,VWS V14.01,2013-04-03 00:24:00,
2013-04-02 20:25:00,45.1,8.5,30.10,North,355,4.0,6.0,22,0.00,,---,0.00,VWS V14.01,2013-04-03 00:25:00,
2013-04-02 20:29:00,42.4,9.1,30.12,North,355,5.0,6.0,25,0.00,,---,0.00,VWS V14.01,2013-04-03 00:29:00,
2013-04-02 20:30:00,44.9,9.4,30.10,North,355,4.0,6.0,23,0.00,,---,0.00,VWS V14.01,2013-04-03 00:30:00,
2013-04-02 20:34:00,42.2,9.8,30.14,North,360,2.0,5.0,26,0.00,,---,0.00,VWS V14.01,2013-04-03 00:34:00,
2013-04-02 20:35:00,44.6,9.1,30.10,North,355,1.0,6.0,23,0.00,,---,0.00,VWS V14.01,2013-04-03 00:35:00,
2013-04-02 20:39:00,41.4,9.9,30.14,NNE,13,4.0,6.0,27,0.00,,---,0.00,VWS V14.01,2013-04-03 00:39:00,
2013-04-02 20:40:00,44.3,7.9,30.10,North,350,6.0,10.0,22,0.00,,---,0.00,VWS V14.01,2013-04-03 00:40:00,
2013-04-02 20:44:00,41.0,13.4,30.14,North,9,3.0,4.0,32,0.00,,---,0.00,VWS V14.01,2013-04-03 00:44:00,
2013-04-02 20:45:00,44.2,7.8,30.11,NW,311,3.0,10.0,22,0.00,,---,0.00,VWS V14.01,2013-04-03 00:45:00,
2013-04-02 20:49:00,40.4,12.9,30.14,NNW,345,3.0,5.0,32,0.00,,---,0.00,VWS V14.01,2013-04-03 00:49:00,
2013-04-02 20:50:00,44.2,8.8,30.11,North,5,2.0,6.0,23,0.00,,---,0.00,VWS V14.01,2013-04-03 00:50:00,
2013-04-02 20:54:00,40.3,9.8,30.14,NNW,344,2.0,6.0,28,0.00,,---,0.00,VWS V14.01,2013-04-03 00:54:00,
2013-04-02 20:55:00,44.0,8.6,30.11,North,10,0.0,6.0,23,0.00,,---,0.00,VWS V14.01,2013-04-03 00:55:00,
2013-04-02 20:59:00,40.3,9.0,30.14,NNW,347,4.0,4.0,27,0.00,,---,0.00,VWS V14.01,2013-04-03 00:59:00,
2013-04-02 21:00:00,43.7,9.3,30.12,NNW,345,2.0,13.0,24,0.00,,---,0.00,VWS V14.01,2013-04-03 01:00:00,
2013-04-02 21:04:00,40.6,9.2,30.14,North,360,2.0,2.0,27,0.00,,---,0.00,VWS V14.01,2013-04-03 01:04:00,
2013-04-02 21:05:00,43.4,9.9,30.12,North,350,1.0,6.0,25,0.00,,---,0.00,VWS V14.01,2013-04-03 01:05:00,
2013-04-02 21:09:00,40.6,9.2,30.14,North,360,5.0,7.0,27,0.00,,---,0.00,VWS V14.01,2013-04-03 01:09:00,
2013-04-02 21:10:00,43.2,8.9,30.12,NNW,340,2.0,6.0,24,0.00,,---,0.00,VWS V14.01,2013-04-03 01:10:00,
2013-04-02 21:14:00,40.4,9.9,30.14,NNW,342,4.0,4.0,28,0.00,,---,0.00,VWS V14.01,2013-04-03 01:14:00,
2013-04-02 21:15:00,42.9,8.6,30.12,NNW,339,1.0,5.0,24,0.00,,---,0.00,VWS V14.01,2013-04-03 01:15:00,
2013-04-02 21:19:00,40.4,10.7,30.15,North,360,7.0,7.0,29,0.00,,---,0.00,VWS V14.01,2013-04-03 01:19:00,
2013-04-02 21:20:00,42.7,8.4,30.12,NNE,13,3.0,5.0,24,0.00,,---,0.00,VWS V14.01,2013-04-03 01:20:00,
2013-04-02 21:24:00,40.2,9.7,30.15,NNW,344,2.0,7.0,28,0.00,,---,0.00,VWS V14.01,2013-04-03 01:24:00,
2013-04-02 21:25:00,42.4,9.1,30.12,North,355,5.0,6.0,25,0.00,,---,0.00,VWS V14.01,2013-04-03 01:25:00,
2013-04-02 21:29:00,39.6,13.6,30.15,NNW,344,3.0,3.0,34,0.00,,---,0.00,VWS V14.01,2013-04-03 01:29:00,
2013-04-02 21:30:00,42.2,9.8,30.14,North,360,2.0,5.0,26,0.00,,---,0.00,VWS V14.01,2013-04-03 01:30:00,
2013-04-02 21:34:00,39.0,9.4,30.16,North,355,7.0,7.0,29,0.00,,---,0.00,VWS V14.01,2013-04-03 01:34:00,
2013-04-02 21:35:00,41.4,9.9,30.14,NNE,13,4.0,6.0,27,0.00,,---,0.00,VWS V14.01,2013-04-03 01:35:00,
2013-04-02 21:39:00,39.2,9.6,30.16,North,351,3.0,9.0,29,0.00,,---,0.00,VWS V14.01,2013-04-03 01:39:00,
2013-04-02 21:40:00,41.0,13.4,30.14,North,9,4.0,5.0,32,0.00,,---,0.00,VWS V14.01,2013-04-03 01:40:00,
2013-04-02 21:44:00,39.3,9.7,30.16,North,355,3.0,7.0,29,0.00,,---,0.00,VWS V14.01,2013-04-03 01:44:00,
2013-04-02 21:45:00,40.4,12.9,30.14,NNW,345,5.0,6.0,32,0.00,,---,0.00,VWS V14.01,2013-04-03 01:45:00,
2013-04-02 21:49:00,39.6,10.0,30.17,North,5,4.0,7.0,29,0.00,,---,0.00,VWS V14.01,2013-04-03 01:49:00,
2013-04-02 21:50:00,40.3,9.8,30.14,NNW,344,3.0,6.0,28,0.00,,---,0.00,VWS V14.01,2013-04-03 01:50:00,
2013-04-02 21:54:00,39.7,10.8,30.17,North,355,5.0,6.0,30,0.00,,---,0.00,VWS V14.01,2013-04-03 01:54:00,
2013-04-02 21:55:00,40.3,9.0,30.14,NNW,347,4.0,7.0,27,0.00,,---,0.00,VWS V14.01,2013-04-03 01:55:00,
2013-04-02 21:59:00,39.7,10.1,30.17,NNW,348,5.0,6.0,29,0.00,,---,0.00,VWS V14.01,2013-04-03 01:59:00,
2013-04-02 22:00:00,40.6,9.2,30.14,North,360,2.0,6.0,27,0.00,,---,0.00,VWS V14.01,2013-04-03 02:00:00,
2013-04-02 22:04:00,40.0,9.5,30.17,NNW,342,6.0,6.0,28,0.00,,---,0.00,VWS V14.01,2013-04-03 02:04:00,
2013-04-02 22:05:00,40.6,9.2,30.14,North,360,5.0,7.0,27,0.00,,---,0.00,VWS V14.01,2013-04-03 02:05:00,
2013-04-02 22:09:00,40.0,9.5,30.17,NW,310,3.0,3.0,28,0.00,,---,0.00,VWS V14.01,2013-04-03 02:09:00,
2013-04-02 22:10:00,40.4,10.7,30.14,NNW,342,3.0,6.0,29,0.00,,---,0.00,VWS V14.01,2013-04-03 02:10:00,
2013-04-02 22:14:00,39.9,10.2,30.17,NW,325,5.0,5.0,29,0.00,,---,0.00,VWS V14.01,2013-04-03 02:14:00,
2013-04-02 22:15:00,40.4,10.7,30.15,North,360,7.0,7.0,29,0.00,,---,0.00,VWS V14.01,2013-04-03 02:15:00,
2013-04-02 22:19:00,39.9,9.4,30.17,North,355,3.0,3.0,28,0.00,,---,0.00,VWS V14.01,2013-04-03 02:19:00,
2013-04-02 22:20:00,40.2,9.7,30.15,NNW,344,2.0,7.0,28,0.00,,---,0.00,VWS V14.01,2013-04-03 02:20:00,
2013-04-02 22:24:00,39.7,10.1,30.17,North,349,5.0,5.0,29,0.00,,---,0.00,VWS V14.01,2013-04-03 02:24:00,
2013-04-02 22:25:00,39.6,13.6,30.15,NNW,344,3.0,3.0,34,0.00,,---,0.00,VWS V14.01,2013-04-03 02:25:00,
2013-04-02 22:29:00,39.6,10.0,30.17,NNW,333,3.0,5.0,29,0.00,,---,0.00,VWS V14.01,2013-04-03 02:29:00,
2013-04-02 22:30:00,39.0,9.4,30.16,North,355,7.0,7.0,29,0.00,,---,0.00,VWS V14.01,2013-04-03 02:30:00,
2013-04-02 22:34:00,39.6,10.7,30.17,North,351,9.0,11.0,30,0.00,,---,0.00,VWS V14.01,2013-04-03 02:34:00,
2013-04-02 22:35:00,39.2,9.6,30.16,North,351,3.0,9.0,29,0.00,,---,0.00,VWS V14.01,2013-04-03 02:35:00,
2013-04-02 22:39:00,39.6,10.0,30.17,NNW,333,3.0,5.0,29,0.00,,---,0.00,VWS V14.01,2013-04-03 02:39:00,
2013-04-02 22:40:00,39.3,9.7,30.16,North,355,3.0,7.0,29,0.00,,---,0.00,VWS V14.01,2013-04-03 02:40:00,
2013-04-02 22:44:00,39.6,10.0,30.17,North,355,4.0,6.0,29,0.00,,---,0.00,VWS V14.01,2013-04-03 02:44:00,
2013-04-02 22:45:00,39.6,10.0,30.17,North,5,4.0,7.0,29,0.00,,---,0.00,VWS V14.01,2013-04-03 02:45:00,
2013-04-02 22:49:00,39.6,10.7,30.18,NNW,346,2.0,5.0,30,0.00,,---,0.00,VWS V14.01,2013-04-03 02:49:00,
2013-04-02 22:50:00,39.7,10.8,30.17,North,355,6.0,10.0,30,0.00,,---,0.00,VWS V14.01,2013-04-03 02:50:00,
2013-04-02 22:54:00,39.4,10.6,30.18,North,350,5.0,5.0,30,0.00,,---,0.00,VWS V14.01,2013-04-03 02:54:00,
2013-04-02 22:55:00,39.7,10.1,30.17,NNW,339,6.0,9.0,29,0.00,,---,0.00,VWS V14.01,2013-04-03 02:55:00,
2013-04-02 22:59:00,39.4,12.7,30.18,NNW,348,5.0,5.0,33,0.00,,---,0.00,VWS V14.01,2013-04-03 02:59:00,
2013-04-02 23:00:00,40.0,9.5,30.17,NNW,344,5.0,9.0,28,0.00,,---,0.00,VWS V14.01,2013-04-03 03:00:00,
2013-04-02 23:04:00,39.3,10.5,30.18,North,360,5.0,5.0,30,0.00,,---,0.00,VWS V14.01,2013-04-03 03:04:00,
2013-04-02 23:05:00,40.0,9.5,30.17,NW,308,3.0,9.0,28,0.00,,---,0.00,VWS V14.01,2013-04-03 03:05:00,
2013-04-02 23:09:00,39.2,10.4,30.18,NNW,346,4.0,4.0,30,0.00,,---,0.00,VWS V14.01,2013-04-03 03:09:00,
2013-04-02 23:10:00,39.9,10.2,30.17,NW,325,3.0,10.0,29,0.00,,---,0.00,VWS V14.01,2013-04-03 03:10:00,
2013-04-02 23:14:00,39.2,11.8,30.18,NNW,346,2.0,2.0,32,0.00,,---,0.00,VWS V14.01,2013-04-03 03:14:00,
2013-04-02 23:15:00,39.9,9.4,30.17,North,355,3.0,7.0,28,0.00,,---,0.00,VWS V14.01,2013-04-03 03:15:00,
2013-04-02 23:19:00,38.7,11.4,30.18,North,351,6.0,7.0,32,0.00,,---,0.00,VWS V14.01,2013-04-03 03:19:00,
2013-04-02 23:20:00,39.7,10.1,30.17,North,349,5.0,7.0,29,0.00,,---,0.00,VWS V14.01,2013-04-03 03:20:00,
2013-04-02 23:24:00,38.6,10.6,30.18,NNW,336,6.0,7.0,31,0.00,,---,0.00,VWS V14.01,2013-04-03 03:24:00,
2013-04-02 23:25:00,39.6,10.0,30.17,NNW,333,5.0,7.0,29,0.00,,---,0.00,VWS V14.01,2013-04-03 03:25:00,
2013-04-02 23:29:00,38.4,10.4,30.18,NNW,327,2.0,2.0,31,0.00,,---,0.00,VWS V14.01,2013-04-03 03:29:00,
2013-04-02 23:30:00,39.6,10.7,30.17,North,349,11.0,11.0,30,0.00,,---,0.00,VWS V14.01,2013-04-03 03:30:00,
2013-04-02 23:34:00,38.3,11.0,30.18,North,355,3.0,5.0,32,0.00,,---,0.00,VWS V14.01,2013-04-03 03:34:00,
2013-04-02 23:35:00,39.6,10.0,30.17,North,355,3.0,11.0,29,0.00,,---,0.00,VWS V14.01,2013-04-03 03:35:00,
2013-04-02 23:39:00,38.2,11.6,30.18,North,355,3.0,3.0,33,0.00,,---,0.00,VWS V14.01,2013-04-03 03:39:00,
2013-04-02 23:40:00,39.6,10.0,30.17,North,355,6.0,11.0,29,0.00,,---,0.00,VWS V14.01,2013-04-03 03:40:00,
2013-04-02 23:44:00,37.7,10.5,30.18,North,355,2.0,4.0,32,0.00,,---,0.00,VWS V14.01,2013-04-03 03:44:00,
2013-04-02 23:45:00,39.6,10.7,30.18,NNW,347,3.0,7.0,30,0.00,,---,0.00,VWS V14.01,2013-04-03 03:45:00,
2013-04-02 23:49:00,37.1,13.9,30.18,NNW,327,2.0,3.0,38,0.00,,---,0.00,VWS V14.01,2013-04-03 03:49:00,
2013-04-02 23:50:00,39.4,10.6,30.18,NNW,348,4.0,9.0,30,0.00,,---,0.00,VWS V14.01,2013-04-03 03:50:00,
2013-04-02 23:54:00,36.4,14.4,30.18,NNW,327,3.0,3.0,40,0.00,,---,0.00,VWS V14.01,2013-04-03 03:54:00,
2013-04-02 23:55:00,39.4,10.6,30.18,NNW,342,4.0,9.0,30,0.00,,---,0.00,VWS V14.01,2013-04-03 03:55:00,
2013-04-02 23:59:00,35.6,11.9,30.18,NNW,327,2.0,3.0,37,0.00,,---,0.00,VWS V14.01,2013-04-03 03:59:00,